Wind_Speed
16 18 19 19 18 17 15 13 13 14 15 16 17 18 18 17 15 14 15 16 18 18 19 19 20 22 23 23 24 24 25 25 26 26 26 27 28 29 30 31 31 32 32 33 33 33 33 33 33 33 33 34 34 34 33 32 31 30 30 29 29 28 29 32 33 31 29 29 31
6 12 16 16 16 15 14 13 13 12 12 13 13 14 15 15 14 14 13 14 14 14 15 15 16 17 18 19 20 21 22 23 23 23 24 25 26 27 28 28 29 30 31 31 32 32 32 32 32 32 33 34 34 35 34 34 33 33 33 33 33 33 33 34 35 33 32 32 32
6 1 6 11 12 12 12 12 13 13 12 12 11 11 11 12 12 12 12 12 13 13 13 13 14 14 15 16 17 18 19 20 20 21 22 23 24 25 26 27 27 28 29 30 30 31 31 32 32 32 32 33 34 35 35 36 36 36 36 36 35 35 35 36 37 37 37 36 36
9 8 4 3 7 9 9 9 9 10 10 9 8 8 8 8 9 10 10 11 11 12 13 13 14 14 15 16 16 17 17 18 18 19 19 20 21 23 24 25 26 27 28 28 30 31 31 31 31 32 32 33 34 35 36 37 38 38 37 37 36 36 35 36 37 38 38 38 39
9 10 9 5 1 3 5 6 6 6 6 5 4 4 5 5 6 7 7 8 9 11 12 13 14 15 16 17 18 18 18 18 18 18 18 18 19 19 21 22 23 25 27 28 30 31 32 33 33 33 33 33 34 35 36 37 37 37 37 37 37 36 36 36 36 37 37 37 38
9 9 8 6 4 2 2 3 3 4 4 4 4 5 6 6 7 8 8 9 10 10 11 13 14 16 17 17 18 19 19 19 19 18 18 18 18 18 18 19 21 22 25 27 29 31 33 35 35 34 34 33 33 35 36 36 36 36 36 36 36 37 37 37 37 37 37 37 37
13 12 9 6 4 3 3 3 3 4 4 5 5 6 7 7 8 9 10 10 11 11 12 14 16 17 17 17 17 17 17 17 18 18 18 18 18 17 17 17 19 20 22 24 26 29 32 33 34 33 32 31 31 31 32 33 33 34 34 35 36 36 37 37 38 37 37 36 37
17 17 16 12 8 5 2 2 3 3 3 3 5 6 6 7 8 9 9 11 11 12 14 15 17 18 18 18 16 15 14 15 15 15 15 14 14 14 14 15 16 17 19 20 22 24 26 28 29 30 30 29 27 27 27 27 28 29 31 32 33 34 35 36 37 37 36 36 36
16 17 17 17 15 12 8 4 1 1 2 3 4 5 6 6 7 8 9 9 10 10 11 12 14 16 17 16 15 15 14 14 14 13 12 11 10 9 9 10 11 12 13 14 15 17 18 20 23 25 26 26 25 24 24 24 25 26 27 28 28 29 31 33 34 35 35 35 35
14 15 16 16 16 15 13 11 8 5 4 3 3 4 5 6 7 8 8 9 9 9 9 9 10 13 15 15 15 14 14 13 13 12 12 10 9 8 7 8 9 10 11 11 12 12 13 14 16 18 20 22 23 24 25 27 29 30 31 30 28 26 25 27 29 32 33 34 34
13 14 14 14 14 13 13 13 11 9 8 6 5 5 5 6 7 8 9 10 10 11 10 9 9 11 14 16 16 14 13 11 11 10 10 9 8 8 8 10 11 12 13 13 12 12 12 12 12 13 14 16 18 20 23 25 27 29 30 30 28 26 25 26 26 28 30 32 34
13 13 12 12 11 11 11 11 11 10 9 8 7 6 7 7 8 9 9 10 10 11 12 12 12 13 15 17 17 14 12 10 9 9 10 10 9 10 11 13 14 15 15 15 14 13 13 13 13 13 13 13 14 15 17 18 20 22 23 24 24 24 24 24 24 24 26 28 30
13 12 12 11 10 10 10 11 11 10 9 9 8 8 8 9 9 9 9 9 9 10 12 14 15 16 17 18 16 14 11 11 10 11 11 12 12 13 13 14 15 16 16 16 16 15 15 15 16 16 15 15 14 14 15 17 18 19 19 19 19 20 21 21 21 22 22 24 26
13 13 13 12 11 10 9 9 10 9 9 9 10 10 10 10 10 10 10 10 9 9 10 13 15 17 17 16 14 12 11 11 12 13 14 16 16 16 16 16 17 17 17 17 17 17 17 18 19 19 19 18 17 17 17 18 19 19 19 19 18 19 19 20 20 20 20 21 23
14 14 13 13 12 11 9 8 8 8 8 9 10 10 10 10 10 10 11 11 10 10 10 12 14 16 16 15 14 13 12 12 13 15 17 18 19 19 19 18 18 17 17 17 17 17 18 20 21 22 22 21 20 19 19 20 20 21 20 20 20 20 20 20 21 21 20 20 21
16 15 14 14 14 13 12 10 8 7 7 7 8 9 10 11 11 11 11 11 11 11 12 13 14 15 16 16 16 15 15 14 14 16 18 20 21 21 20 20 19 18 18 17 17 18 19 21 22 23 24 23 22 21 21 21 22 22 22 22 22 22 22 22 22 22 22 21 21
17 16 15 15 15 15 15 13 12 10 9 8 8 9 10 11 12 12 13 13 13 13 14 14 15 16 17 17 17 17 17 17 17 18 19 20 21 22 21 21 20 19 18 18 18 19 20 21 23 23 24 24 23 23 22 23 23 24 24 24 24 24 24 24 24 23 23 23 23
19 18 17 16 16 16 16 15 15 13 12 11 10 10 10 10 10 11 12 14 15 15 16 16 17 17 18 18 18 18 18 19 19 20 20 21 21 22 22 22 22 21 20 19 19 20 21 22 23 24 24 24 24 24 24 24 24 24 24 25 25 25 25 25 25 25 24 24 24
23 21 19 17 17 16 16 15 15 15 14 13 12 11 11 11 10 9 9 10 11 12 14 15 16 16 16 17 17 17 18 19 20 21 21 21 21 22 22 23 23 23 22 21 21 21 22 23 24 24 24 25 25 25 24 24 24 24 25 25 25 25 25 25 25 25 25 25 25
25 24 22 19 17 15 15 14 15 15 14 14 13 13 12 12 12 11 10 9 8 8 9 10 11 12 13 14 15 16 17 18 20 21 22 22 22 23 23 23 24 24 24 23 23 22 23 23 24 24 25 25 25 25 25 25 25 25 25 25 26 25 25 25 25 25 25 25 26
27 26 24 21 18 16 14 13 13 13 14 14 14 13 13 13 13 13 12 12 11 11 10 11 11 11 11 12 13 14 16 18 19 21 22 22 23 23 23 23 24 24 24 24 24 24 24 24 24 24 24 24 24 24 24 24 25 25 26 26 26 26 25 25 25 25 25 26 26
26 26 26 24 21 18 15 13 12 12 13 13 14 14 13 13 13 13 13 13 13 13 13 13 13 12 12 11 11 12 13 14 17 19 21 22 23 23 23 23 23 24 24 25 25 25 25 25 25 24 24 24 24 24 24 25 25 26 26 27 26 26 25 25 25 25 25 26 26
25 26 27 26 24 22 19 16 14 12 12 12 13 13 13 13 13 13 13 13 13 13 14 14 14 14 14 14 13 12 12 12 13 15 17 19 21 23 24 24 24 24 25 25 26 26 26 26 26 25 25 25 25 25 25 26 26 27 27 27 27 26 26 25 25 25 25 25 26
24 25 26 26 26 25 22 20 17 15 14 13 13 13 13 13 14 14 14 13 13 13 13 14 14 15 15 16 15 15 15 14 14 14 15 16 18 21 23 25 26 27 27 27 27 27 27 27 27 26 26 26 26 26 26 27 27 27 27 27 27 26 26 25 25 25 25 25 25
23 24 25 26 26 26 25 24 22 19 17 15 14 13 13 13 14 14 14 14 13 13 13 13 14 15 15 16 16 16 16 16 16 16 16 16 17 18 20 23 25 27 28 29 29 29 28 28 28 28 27 27 27 27 27 28 28 28 27 27 26 26 25 25 25 25 25 25 25
22 23 24 25 26 26 26 25 24 23 21 19 18 16 15 15 15 15 15 15 14 13 13 13 14 14 15 15 15 16 16 16 16 16 16 16 17 17 18 20 23 25 28 29 30 30 30 30 30 29 29 29 28 28 28 29 29 28 28 27 26 26 25 25 25 25 25 25 25
23 23 24 25 25 26 26 26 25 24 23 22 21 21 19 18 17 16 16 16 15 15 14 14 14 14 14 14 14 15 15 15 16 16 16 16 16 16 17 18 20 23 25 27 29 30 30 30 30 30 30 30 30 29 28 28 28 28 27 27 26 26 25 25 25 25 25 24 24
24 24 25 26 26 27 27 27 27 26 24 23 23 23 22 20 19 18 18 18 18 18 17 16 15 15 15 15 14 14 15 15 15 16 16 16 16 16 16 17 19 21 23 25 27 28 29 29 30 30 30 30 30 29 28 27 27 27 27 26 26 26 25 25 25 25 24 24 24
25 25 26 26 27 27 28 28 27 26 25 24 23 23 22 21 20 19 19 20 20 20 19 18 17 17 17 16 16 16 15 15 15 15 16 16 16 16 16 16 18 20 22 24 25 27 28 29 29 30 30 30 29 28 27 26 26 26 26 26 26 25 25 24 23 23 23 24 24
26 26 27 27 27 28 28 28 27 27 26 24 24 23 22 21 20 20 20 20 20 20 19 19 18 18 17 17 18 18 17 16 16 15 15 16 16 17 16 17 17 18 20 21 23 25 27 28 28 29 29 29 28 27 26 26 25 25 26 26 25 25 24 23 23 23 23 24 25
26 27 27 27 27 27 27 27 27 27 26 25 24 23 21 20 20 20 20 20 20 20 20 19 18 18 18 18 19 19 19 18 17 16 16 17 17 17 17 17 18 18 19 19 21 22 24 25 26 27 28 28 28 27 27 26 26 26 26 26 25 25 24 24 23 24 24 25 26
27 28 28 28 28 27 27 27 26 26 26 25 24 23 21 21 21 21 20 20 20 20 20 20 19 19 19 19 20 20 20 20 19 18 18 18 18 18 18 18 18 18 19 19 20 21 22 23 24 25 27 27 28 28 28 28 28 27 27 27 26 26 26 25 25 25 26 27 27
28 29 29 29 28 28 27 27 26 26 25 25 23 22 22 22 22 23 22 22 21 21 21 21 20 20 20 20 20 21 20 20 20 20 19 18 18 19 19 19 19 19 19 19 19 20 21 22 23 24 25 26 27 28 29 28 28 28 27 27 27 27 27 27 27 27 27 28 28
29 30 30 29 29 28 27 27 26 25 24 24 23 22 22 22 23 24 24 23 22 22 21 21 21 21 21 21 21 21 21 21 21 21 20 20 19 19 20 20 20 19 19 18 19 19 20 21 22 23 24 25 26 27 28 28 28 27 26 26 26 27 27 27 28 28 28 28 29
29 30 30 30 29 28 27 27 26 25 24 23 22 22 23 23 23 23 24 24 23 23 22 22 21 21 21 21 21 21 22 22 22 22 22 21 21 20 21 21 20 19 18 18 18 18 19 20 21 22 23 23 24 25 26 26 27 26 26 26 26 26 27 27 28 28 29 29 29
28 29 29 29 28 27 27 26 26 25 23 22 22 23 23 24 24 23 23 23 24 24 23 23 23 22 22 22 22 23 23 23 24 24 24 23 22 22 22 22 21 20 18 18 18 18 18 19 19 20 21 21 22 23 25 25 25 25 25 25 25 26 26 27 27 28 29 29 29
28 28 28 29 28 27 27 26 25 24 23 22 22 23 23 24 24 23 23 23 24 24 24 23 23 23 23 23 24 24 24 24 25 25 25 25 24 23 23 24 23 22 20 18 18 18 18 18 18 19 19 20 21 23 24 24 24 24 24 24 25 25 26 26 27 27 28 29 29
28 28 28 28 28 28 27 26 25 24 23 23 23 24 24 24 24 24 24 23 23 24 24 23 23 23 24 25 25 26 26 25 25 26 26 26 25 24 24 25 25 24 22 20 19 18 18 18 18 18 18 19 21 22 23 23 23 23 23 23 24 25 25 25 25 26 27 27 28
28 28 28 28 28 28 28 27 26 26 25 26 26 26 26 25 24 24 24 23 24 24 25 25 24 24 25 25 26 27 28 27 26 26 26 27 26 26 26 26 26 25 24 22 21 20 19 19 18 18 18 19 21 23 23 22 22 22 22 23 23 24 24 24 25 25 26 26 26
28 28 28 28 28 28 28 28 28 27 28 28 28 28 28 27 26 25 24 24 24 25 26 26 26 26 26 26 26 27 28 28 28 27 27 27 27 27 27 27 27 26 25 24 23 23 22 20 19 19 19 20 22 23 23 22 22 22 22 22 22 22 23 23 24 24 25 25 25
27 27 27 27 27 27 28 28 28 28 28 28 28 28 28 28 27 26 25 25 25 25 25 25 26 27 27 27 27 27 27 28 28 28 28 28 28 28 27 27 27 27 26 25 25 24 23 22 21 20 20 21 22 23 23 23 22 21 21 22 22 22 22 23 23 24 25 25 25
Wind_Direction
226 224 222 222 220 216 210 198 185 179 179 181 183 186 190 193 192 191 193 197 202 205 205 203 199 198 200 203 206 208 210 213 215 216 216 216 217 217 218 218 219 220 221 222 222 223 223 224 223 222 221 220 219 219 220 221 222 223 224 224 227 233 243 252 255 254 251 252 255
227 220 217 216 214 212 210 207 202 198 193 188 186 184 185 189 191 191 192 195 198 203 207 209 208 208 209 211 213 214 215 217 219 220 221 221 221 222 221 221 221 222 223 223 224 224 225 225 224 223 223 223 222 223 225 226 228 229 229 229 229 230 233 238 240 240 240 242 247
42 83 198 194 196 200 203 205 206 206 206 204 202 200 199 202 205 207 209 210 212 214 217 219 221 219 217 216 215 214 214 216 219 221 223 225 226 227 226 226 226 226 226 227 227 228 228 227 226 225 225 225 225 226 228 230 232 232 232 231 230 229 229 230 231 232 233 234 235
17 10 20 151 173 181 187 194 198 201 202 203 204 207 211 217 220 223 224 224 225 225 225 227 228 228 226 224 221 218 216 217 218 221 224 227 230 232 234 234 234 234 234 234 234 235 235 234 232 231 230 229 230 230 232 233 234 234 233 233 231 229 228 228 229 230 230 231 231
356 356 3 18 70 165 174 177 183 190 197 204 212 223 230 235 236 235 232 231 231 231 231 232 232 232 232 232 230 228 226 225 225 226 229 232 235 238 240 242 243 243 243 244 244 244 243 242 240 238 236 236 235 235 235 236 236 235 234 234 232 230 229 228 229 230 230 230 230
3 5 8 9 359 314 247 204 202 206 216 236 253 260 260 257 253 248 244 241 240 239 239 239 238 236 235 234 234 232 231 230 230 231 233 237 240 243 246 248 249 249 249 249 249 248 248 246 244 242 241 241 240 238 238 237 236 235 234 233 232 230 229 229 229 230 230 230 230
33 29 24 14 354 317 281 256 244 242 245 252 262 266 263 256 250 247 245 244 243 242 243 242 241 239 237 236 234 231 230 229 230 233 236 240 243 245 246 247 247 247 247 247 246 246 245 244 244 244 244 243 242 241 239 237 236 235 234 233 233 232 230 230 230 230 229 230 230
40 37 35 31 24 9 327 263 243 241 247 254 262 264 260 254 248 247 247 247 245 245 246 248 248 244 241 239 237 235 233 234 236 239 241 243 244 244 243 241 241 241 242 244 245 246 247 247 247 247 246 245 244 242 241 238 237 235 234 234 234 233 232 231 231 231 230 230 230
30 28 27 28 29 29 28 25 12 289 271 266 263 259 256 253 250 249 250 251 251 251 253 258 260 255 247 241 240 241 242 243 244 244 244 242 241 240 239 239 240 242 245 248 251 255 257 258 257 254 252 249 248 247 247 246 246 245 243 240 239 237 236 234 233 232 231 231 231
19 15 14 15 19 23 27 29 27 18 355 327 304 282 267 259 257 256 257 258 259 258 258 261 267 266 259 249 245 244 243 244 244 243 241 239 240 244 250 256 259 260 261 263 266 269 269 268 265 262 258 256 255 257 258 260 260 259 257 255 253 251 247 242 239 236 234 233 233
18 14 12 11 12 13 16 20 20 18 12 3 350 330 306 289 281 277 275 272 268 263 260 258 260 263 261 254 247 242 240 240 240 239 239 242 249 262 273 277 277 275 273 273 276 278 278 276 273 270 267 265 264 265 265 264 263 261 260 260 260 261 262 259 253 246 240 238 238
26 23 20 17 13 10 10 12 12 9 3 354 341 325 312 303 297 293 289 284 277 270 264 259 256 255 253 249 244 241 239 239 238 241 247 255 265 275 281 282 282 281 280 279 280 281 280 279 277 275 273 272 270 268 266 264 262 260 258 259 260 263 266 267 265 259 252 246 244
38 36 34 31 25 19 16 14 10 2 353 340 328 317 309 303 297 291 287 285 282 275 265 257 252 248 245 242 240 241 243 244 245 248 254 261 269 275 279 281 283 284 285 285 285 282 279 276 272 269 267 268 269 270 268 266 264 261 260 260 261 263 266 269 269 267 262 254 249
45 44 43 43 40 35 27 20 13 3 351 338 328 321 316 309 299 288 279 276 274 269 260 251 246 242 240 239 240 245 253 258 259 261 263 267 272 276 280 282 285 286 287 287 285 280 275 270 267 263 262 263 266 268 268 267 265 264 263 263 264 265 267 269 270 269 264 257 252
40 39 38 39 41 41 37 29 18 6 353 340 330 323 318 313 306 294 282 272 266 259 253 247 244 242 241 244 249 257 263 267 270 271 272 274 277 279 282 284 286 286 286 284 282 277 272 267 263 261 259 260 263 265 267 267 266 265 265 264 264 265 266 267 268 266 262 257 251
33 32 30 30 32 33 32 30 23 11 358 347 337 327 318 308 301 294 286 277 270 264 258 253 248 246 247 251 257 263 268 271 274 276 277 278 279 280 281 283 284 284 284 282 279 276 272 267 263 259 257 258 260 263 265 266 266 266 266 265 265 265 265 265 264 262 260 257 252
31 30 29 29 28 27 26 24 20 14 6 356 348 339 325 309 294 283 276 275 272 268 265 262 259 256 256 259 263 268 271 273 275 276 277 278 278 278 279 279 280 281 281 279 277 275 272 269 265 261 259 259 260 262 263 264 265 266 267 267 266 266 265 264 263 261 259 257 254
30 29 29 29 28 26 24 21 17 12 7 1 354 346 337 325 309 289 276 270 267 264 263 263 263 261 260 262 266 271 273 274 274 274 275 275 275 275 275 276 277 278 278 277 276 275 274 272 270 267 265 263 263 262 262 262 263 264 266 267 267 266 265 263 262 260 259 257 256
27 26 25 25 25 24 24 22 18 12 6 0 354 347 342 338 332 321 303 285 273 266 263 262 260 258 258 260 264 268 271 273 273 273 272 272 271 271 271 272 274 275 276 275 275 275 275 275 274 272 270 267 265 263 262 261 261 262 264 265 265 264 262 261 260 259 259 258 257
25 24 23 21 20 20 21 21 19 15 8 1 355 349 344 339 335 332 327 318 302 288 278 273 269 267 266 266 267 269 270 271 271 270 268 267 265 265 266 268 270 272 274 275 274 274 274 273 273 272 271 268 266 263 261 261 261 262 263 263 262 261 260 259 258 258 258 258 257
22 22 22 21 19 18 18 18 18 16 11 4 358 352 346 340 335 331 328 322 314 304 296 292 289 288 286 285 283 280 276 272 269 266 263 261 259 260 262 265 268 271 272 273 273 272 271 270 269 268 267 266 264 261 261 261 262 262 262 261 261 260 259 258 256 256 255 255 254
17 17 18 20 20 19 17 15 15 15 13 7 1 354 347 342 337 333 329 324 319 314 308 303 299 296 294 292 292 289 285 279 272 266 261 258 256 257 259 262 265 268 269 270 270 269 268 267 266 265 263 261 260 259 260 261 262 262 261 261 260 259 258 257 255 253 252 251 250
12 12 13 15 17 18 17 15 13 12 11 8 2 355 348 342 338 334 331 328 324 321 317 313 308 302 296 291 287 286 285 283 279 274 268 263 259 258 258 259 261 263 265 266 266 265 265 264 263 262 260 258 256 257 258 259 260 260 259 259 259 259 258 256 254 251 250 248 247
8 7 8 10 12 13 14 13 11 9 7 5 1 355 348 342 337 335 332 330 327 323 319 315 312 307 302 296 291 287 284 281 280 279 277 274 270 266 263 260 259 259 259 261 262 262 261 260 259 259 258 256 255 256 257 258 258 258 257 257 257 257 257 255 253 250 248 246 245
5 4 5 6 7 8 8 8 7 6 4 1 357 353 349 344 339 336 333 330 328 324 320 316 312 308 305 302 299 295 291 286 282 279 278 277 277 275 271 266 261 258 258 258 258 259 259 257 256 256 255 255 255 256 257 258 258 257 256 255 255 255 254 253 252 250 247 244 242
3 2 2 2 3 3 3 3 1 1 0 360 357 355 351 348 343 339 336 332 330 327 323 319 314 311 309 307 305 303 300 297 292 287 282 279 279 279 278 274 267 262 259 258 257 257 258 258 258 257 256 254 253 253 253 255 256 256 255 254 253 252 251 250 249 247 245 242 239
2 0 359 357 358 359 359 358 356 356 356 357 357 355 354 352 349 346 342 339 337 335 332 328 324 319 316 313 311 310 308 306 303 299 293 287 284 283 284 282 275 268 263 260 258 258 258 258 258 258 256 254 252 250 249 250 251 253 253 252 251 249 247 246 245 244 241 237 234
2 359 355 353 353 353 353 353 353 352 352 352 353 352 352 352 352 350 348 346 345 344 342 340 336 331 327 323 319 316 313 312 310 307 302 295 289 285 284 283 280 275 270 266 262 260 259 258 257 256 254 252 250 248 247 248 250 251 252 251 250 247 245 243 242 240 237 233 229
0 356 353 351 350 349 349 349 349 349 348 348 348 348 349 349 349 349 348 347 347 346 344 342 339 337 334 330 326 322 318 315 312 309 305 300 294 288 284 282 281 279 276 272 267 264 261 259 257 255 252 250 248 247 247 248 250 252 252 251 250 247 244 241 239 237 234 230 226
356 353 351 350 348 347 346 347 346 346 345 345 345 346 346 346 346 346 346 346 345 344 342 340 337 335 332 330 328 325 322 317 313 309 305 302 297 292 286 281 279 278 276 273 269 265 262 259 257 254 251 249 247 247 248 250 251 251 251 251 249 246 242 239 237 235 232 229 225
352 351 350 349 348 347 346 346 345 344 344 343 343 343 343 343 343 343 343 342 341 340 340 338 335 331 328 327 326 325 323 320 317 312 307 303 299 295 289 284 280 276 274 272 269 266 263 260 257 254 252 250 249 250 251 252 252 251 250 249 247 244 241 238 235 233 231 228 224
350 349 349 349 348 347 346 346 345 344 343 342 342 341 341 340 339 339 339 339 339 338 338 336 334 331 328 326 324 323 322 321 319 316 311 306 301 297 292 288 283 278 275 272 270 269 266 263 260 256 254 253 252 253 253 253 252 250 249 247 245 242 240 237 235 232 230 227 224
349 349 348 348 347 347 346 346 345 344 343 342 341 340 338 337 337 337 337 338 337 336 335 334 332 330 327 325 322 320 319 318 318 317 314 310 304 299 295 291 286 282 279 276 274 272 270 268 265 262 259 257 256 256 255 253 251 249 246 244 242 241 239 237 234 231 229 226 224
348 347 347 347 346 345 345 345 345 344 342 341 340 338 337 336 335 335 335 334 333 332 331 330 329 327 325 323 321 319 317 316 316 316 315 313 308 303 297 293 289 286 284 283 281 278 275 273 271 268 265 263 260 257 254 251 248 245 242 240 239 238 237 235 233 231 228 225 224
346 345 344 344 344 343 343 343 343 343 342 340 338 337 335 334 333 331 330 330 329 327 326 326 326 325 324 323 321 319 317 316 314 313 313 312 309 305 299 295 291 289 288 287 286 284 281 278 276 274 272 268 263 258 252 247 244 241 239 237 235 234 233 232 230 228 227 225 224
343 343 342 341 341 341 340 340 340 340 340 338 336 335 333 332 330 328 327 326 325 324 323 323 323 323 323 322 321 320 318 316 314 312 311 309 307 304 299 296 293 291 289 289 289 287 285 283 281 279 276 271 263 255 249 244 240 238 236 234 232 231 230 228 227 226 225 224 223
342 341 339 338 337 337 337 337 337 337 336 335 334 332 331 329 327 326 325 325 322 320 319 318 319 319 319 319 319 318 317 316 314 312 309 308 305 302 299 296 294 292 291 290 289 288 287 286 284 282 276 268 258 250 244 240 237 234 232 230 229 228 227 226 224 223 222 221 221
340 339 338 336 335 334 334 334 334 333 332 331 330 330 329 328 326 325 325 324 321 318 316 315 314 314 314 315 315 315 315 315 313 311 309 307 304 302 299 296 294 292 291 290 288 287 286 285 284 280 272 261 252 245 240 236 232 230 228 226 225 224 223 222 221 219 218 218 218
339 338 336 335 333 332 332 331 330 329 328 328 327 328 328 327 326 325 325 324 321 319 317 315 313 312 312 312 312 312 312 312 312 310 308 306 304 303 300 296 294 292 290 288 287 285 283 281 280 275 267 256 248 242 237 232 228 225 223 221 220 219 218 217 215 214 214 214 215
337 337 335 334 332 331 330 329 328 327 327 327 326 326 326 326 325 324 324 323 321 319 318 316 314 312 312 311 310 308 308 308 308 308 307 305 304 303 301 298 294 292 289 287 285 282 280 277 275 269 261 251 244 238 233 229 224 221 218 216 214 213 211 211 210 209 209 210 211
337 336 335 334 332 331 329 328 327 327 327 326 325 324 324 324 323 322 322 321 319 318 315 313 312 311 310 309 307 305 303 303 303 303 303 303 303 302 301 298 295 293 290 286 283 280 277 274 270 263 255 246 239 234 229 225 220 217 215 213 211 209 207 205 205 205 205 206 207
Height
742 742 743 743 744 744 744 744 744 745 746 747 747 748 749 750 751 752 754 755 756 757 757 757 757 758 760 761 762 763 764 765 767 767 768 768 769 769 770 769 770 770 771 772 772 773 773 774 774 774 774 775 775 775 776 776 776 777 777 778 778 780 783 785 785 785 786 786 788
741 742 742 743 744 744 744 745 745 746 746 746 746 747 748 749 750 752 753 754 755 756 757 757 757 758 759 761 762 763 764 765 766 767 767 768 768 769 769 769 769 769 769 770 771 771 771 772 772 772 772 773 773 773 774 774 774 775 775 775 775 776 778 780 781 782 782 783 784
741 741 742 743 744 744 745 746 746 747 747 747 748 748 749 750 751 752 753 754 755 756 757 758 758 759 760 761 762 763 763 764 765 766 766 767 768 768 769 769 768 768 768 769 769 770 770 770 770 770 770 770 770 771 771 771 772 772 772 772 772 773 773 774 775 776 777 778 779
741 741 742 744 744 745 745 746 747 748 748 749 749 749 750 751 752 753 754 755 756 756 757 758 759 759 760 761 762 762 763 763 764 765 765 766 766 767 767 767 767 767 767 767 768 769 769 769 769 769 769 768 768 768 769 769 769 770 770 769 769 769 770 771 772 773 774 774 774
741 741 742 743 744 745 746 746 747 748 748 749 749 750 750 751 752 753 754 755 755 756 757 758 759 759 760 761 761 761 762 762 763 763 764 764 765 765 765 766 766 766 766 766 767 767 767 768 768 767 767 767 767 766 766 767 768 768 768 767 767 767 767 768 769 770 771 772 772
742 742 742 742 743 744 745 746 746 747 748 748 749 749 750 751 752 752 753 754 754 755 756 757 758 759 759 759 760 760 760 761 761 762 762 763 763 764 764 764 764 764 765 765 765 766 766 766 766 765 765 765 765 764 764 765 766 766 765 765 764 764 765 766 767 768 769 769 769
741 741 742 743 744 744 745 745 746 746 747 748 748 749 749 750 751 752 753 754 754 755 755 756 757 758 758 758 759 759 759 759 760 760 761 761 761 762 762 762 763 763 763 764 764 764 764 764 764 764 764 764 763 763 763 764 764 764 764 763 762 762 763 763 764 765 766 766 766
741 742 743 744 744 744 745 745 746 746 747 747 748 748 749 750 751 752 753 753 754 754 755 756 756 757 757 758 758 758 759 759 759 759 759 760 760 760 760 760 761 761 761 761 761 761 761 761 762 762 761 761 761 761 762 762 763 762 762 761 761 761 761 762 763 763 764 764 764
743 744 744 745 745 745 745 745 746 746 746 747 747 748 749 750 751 751 752 753 754 754 754 755 756 756 757 757 757 757 757 757 757 758 758 758 759 759 759 759 759 759 759 759 759 759 759 759 759 759 759 759 759 759 760 761 761 762 761 761 760 760 760 761 761 762 762 762 762
744 745 745 746 746 746 746 746 746 746 747 747 748 748 749 750 751 751 752 752 753 753 754 754 755 756 756 756 757 757 756 756 756 756 756 757 757 757 757 757 757 756 756 757 757 757 757 757 757 757 757 757 757 757 757 759 760 760 760 760 760 760 760 760 760 760 760 760 760
746 746 746 747 747 747 747 747 747 747 747 748 748 749 749 750 751 751 751 752 752 752 752 753 753 754 755 755 755 755 755 755 754 754 755 755 755 754 754 754 754 754 754 754 754 754 754 754 754 754 754 754 755 755 756 757 758 759 759 759 759 759 759 759 759 759 759 759 759
747 747 748 748 748 748 747 747 747 747 748 748 749 749 750 750 750 751 751 751 751 751 751 751 752 753 753 754 754 754 754 753 753 753 753 752 752 752 752 752 752 752 752 752 752 752 751 751 752 752 753 753 754 755 755 756 757 758 758 758 758 758 758 758 758 758 758 758 758
748 748 749 749 749 748 748 748 748 748 748 748 749 749 749 750 750 750 750 750 750 750 750 751 751 751 751 752 752 752 752 752 751 751 751 750 750 750 750 750 750 750 750 750 750 750 750 751 751 752 753 754 754 754 755 756 756 756 756 756 756 756 756 757 757 757 757 757 757
749 749 749 749 749 748 748 748 748 748 748 749 749 749 749 749 750 750 750 750 749 750 750 750 750 750 750 750 751 751 751 750 750 750 749 749 749 749 749 749 749 749 749 749 749 750 750 751 751 752 752 753 754 754 754 755 755 755 755 755 755 755 755 755 755 755 755 755 756
749 749 749 749 749 749 749 748 748 749 749 749 749 749 749 749 749 749 749 749 749 749 749 749 750 750 750 750 750 749 749 749 749 749 748 748 748 748 747 747 747 748 748 749 749 750 750 751 751 751 752 752 753 753 754 754 754 754 754 754 755 755 755 754 754 754 754 754 754
750 750 750 749 749 749 749 749 749 749 749 749 749 749 749 749 749 749 749 749 749 749 749 749 749 749 749 749 749 748 748 748 748 748 748 747 747 747 747 747 747 747 748 749 749 750 750 750 751 751 751 751 751 752 752 753 753 753 753 754 754 754 754 753 753 753 753 753 753
751 751 750 750 750 749 749 749 749 749 749 749 749 749 749 749 749 749 748 748 748 748 748 748 748 748 748 748 747 747 747 746 746 746 746 746 746 746 746 746 746 747 747 748 749 749 749 750 750 750 750 750 750 751 751 751 751 752 752 752 752 752 752 752 752 752 751 751 752
752 751 751 750 750 750 749 749 749 749 749 749 749 749 749 749 749 748 748 748 747 747 747 747 747 747 746 746 746 746 745 745 745 745 745 745 745 745 745 745 746 746 747 747 748 748 749 749 749 749 749 749 749 749 749 750 750 750 750 750 750 750 750 750 750 750 750 750 750
752 751 750 750 750 749 749 749 749 749 750 750 749 749 749 749 748 748 747 747 747 747 747 746 746 746 745 745 745 744 744 744 744 744 744 744 744 744 745 745 745 745 746 746 746 747 747 748 748 748 748 748 748 748 748 748 748 748 748 748 748 748 748 749 749 749 749 748 748
752 751 751 750 750 749 749 749 749 749 749 749 749 749 749 748 748 747 747 746 746 746 745 745 745 745 744 744 744 744 743 743 743 743 743 743 743 743 744 744 744 744 744 745 745 745 746 746 746 747 747 747 747 747 747 747 747 747 747 747 747 746 747 747 747 747 747 747 747
752 752 752 751 750 750 750 749 749 749 749 749 749 749 748 748 748 747 747 746 745 745 744 744 744 744 743 743 743 743 742 742 742 742 742 742 742 742 742 743 743 743 744 744 744 744 744 745 745 745 746 746 746 746 746 746 746 746 745 745 745 745 745 745 745 745 745 745 745
753 753 752 752 751 751 750 750 750 749 749 749 749 749 748 748 748 747 747 746 745 744 744 743 743 742 742 742 742 741 741 741 741 741 740 740 740 741 741 742 742 742 742 742 742 743 743 743 744 744 744 744 745 745 745 745 745 744 744 744 744 744 744 744 744 744 744 744 744
754 753 753 752 752 751 751 751 750 750 750 749 749 749 749 748 747 747 746 745 745 744 743 742 742 741 741 741 740 740 740 740 740 739 739 739 739 739 739 740 740 740 740 740 741 741 741 742 742 742 743 743 743 743 743 743 743 743 743 742 742 742 742 742 742 742 742 742 743
754 754 753 753 752 752 752 751 751 751 750 750 749 749 749 748 747 746 746 745 744 743 743 742 741 740 740 739 739 739 739 738 738 738 738 738 738 738 738 738 738 738 738 738 739 739 739 740 740 740 741 741 741 741 741 741 741 741 741 740 740 740 740 740 740 740 741 741 741
755 754 754 754 753 753 752 752 752 751 751 751 750 749 749 748 747 746 745 744 744 743 742 741 741 740 739 739 738 738 737 737 737 736 736 736 737 737 737 737 737 736 736 736 737 737 738 738 739 739 739 739 739 739 739 739 739 739 739 739 739 739 739 739 739 739 739 739 739
756 755 755 754 754 754 753 753 752 752 751 751 750 749 749 748 747 746 745 744 744 743 742 741 740 739 739 738 737 736 736 736 735 735 735 734 735 735 735 735 735 735 734 734 735 735 735 736 736 736 737 737 737 737 737 737 737 737 737 737 737 737 737 737 737 737 738 738 738
756 756 755 755 754 754 754 753 753 752 751 750 749 749 748 747 746 745 745 744 743 742 741 740 739 739 738 737 736 736 735 735 734 734 734 733 733 733 733 734 733 733 733 733 733 733 734 734 734 734 734 734 734 734 734 734 735 735 735 735 735 735 735 735 735 736 736 736 737
757 756 756 755 755 754 754 753 752 752 751 750 749 748 747 746 746 745 744 743 742 741 740 739 739 738 737 736 736 735 734 734 734 733 732 732 732 732 732 732 732 732 732 732 732 732 732 732 733 733 733 733 733 733 733 733 733 733 733 733 734 734 734 734 734 734 735 735 735
758 757 756 756 755 754 754 753 752 751 750 749 748 748 747 746 745 744 743 742 741 740 739 738 738 737 736 735 735 734 734 733 733 732 732 731 731 730 730 730 730 731 731 731 730 730 730 730 731 731 731 731 731 731 731 731 731 731 732 732 732 732 732 733 733 734 734 734 734
758 757 757 756 755 754 753 753 752 751 750 749 748 747 746 745 744 743 742 741 740 740 739 738 737 736 736 735 734 734 733 733 732 732 731 730 729 729 729 729 729 729 729 729 729 729 729 729 729 729 729 729 729 729 729 729 729 730 730 730 730 731 731 732 732 733 733 734 734
758 758 757 756 755 754 753 752 751 750 749 748 747 746 745 744 744 743 742 741 740 739 739 738 737 736 735 735 734 734 733 732 731 731 730 729 729 728 728 727 727 727 727 728 728 728 728 727 727 727 728 728 728 728 728 728 728 728 728 728 728 729 729 730 730 731 732 732 733
758 757 756 755 754 754 753 752 751 749 749 748 747 746 745 744 743 742 742 741 740 739 738 737 736 736 735 734 734 733 732 731 731 730 729 729 728 727 726 726 726 726 726 726 726 726 726 726 726 726 726 726 726 726 726 726 726 726 726 726 726 727 727 728 728 729 729 730 731
757 756 755 755 754 753 752 751 750 749 748 747 746 745 744 743 742 741 740 740 739 738 737 737 736 735 734 734 733 732 732 731 730 729 729 728 727 726 725 725 724 724 724 724 724 724 724 724 724 724 724 725 724 724 724 724 724 724 724 724 724 725 725 726 726 726 727 728 729
757 756 755 754 753 752 751 750 749 749 748 747 746 745 744 743 742 741 740 739 739 738 737 736 736 735 734 734 733 732 731 730 729 729 728 727 726 725 724 723 723 723 723 723 723 723 722 722 723 723 723 723 723 723 722 722 722 722 723 723 723 723 723 724 724 724 725 726 727
757 756 755 754 753 752 751 750 749 748 748 746 745 745 744 743 742 741 740 739 738 737 736 735 735 734 733 733 732 731 730 729 729 728 727 726 725 724 723 722 721 721 721 721 721 721 721 721 721 721 721 721 721 721 721 721 721 721 721 721 721 722 722 722 723 723 723 724 725
758 757 755 754 753 752 751 750 749 749 748 747 746 745 744 743 742 741 740 739 738 737 736 735 734 733 732 731 731 730 729 729 728 727 726 725 725 724 722 721 720 719 719 719 719 719 719 719 719 719 719 720 719 719 719 719 719 719 719 719 720 720 720 721 721 721 722 722 723
758 757 755 754 753 752 751 750 749 749 748 747 746 745 744 743 742 741 740 739 738 736 735 734 734 733 732 731 730 729 728 728 727 726 725 724 724 723 721 720 719 718 718 718 718 718 718 718 718 718 718 718 718 718 718 718 718 718 718 718 718 719 719 719 720 720 720 721 721
757 756 755 754 753 752 751 750 749 749 748 747 746 745 744 743 742 741 740 739 738 736 735 734 733 732 731 730 729 728 727 727 726 725 724 723 723 722 721 719 718 717 717 717 717 716 716 716 716 717 717 717 717 717 717 717 716 716 716 717 717 717 718 718 719 719 719 720 720
757 756 755 754 753 751 750 749 749 748 747 746 745 744 743 742 741 740 739 739 738 736 735 733 732 731 730 729 728 727 726 725 724 724 723 722 721 721 720 719 717 716 716 716 716 715 715 715 715 715 716 716 716 715 715 715 715 715 715 715 715 716 716 717 717 718 718 719 719
757 756 755 754 753 752 750 749 748 748 747 745 744 743 742 741 740 739 739 738 737 736 734 733 731 730 729 729 727 726 724 724 723 723 722 721 720 719 719 718 716 715 715 715 715 715 714 714 714 714 714 714 714 714 714 714 714 714 714 714 714 714 715 715 716 717 717 718 719
757 756 755 754 753 752 750 749 748 747 746 745 744 743 742 740 739 739 738 737 736 735 734 732 730 729 728 727 726 725 724 722 721 721 721 720 719 718 718 717 715 714 714 714 714 714 714 713 713 713 713 713 713 713 713 713 713 713 713 713 713 713 714 714 715 716 716 717 718